FW9262 Weather Reports


time (UTC)temp
C
wind
direction
speed
KPH
gust
KPH
rain 1hr
cm
rain 24hr
cm
rain mn
cm
humidity
%
barometer
mb
20260906133510 17 1 0.0 0.0 0.00 0.03 0.03 94 1016.3
20260906133005 17 349 0.0 0.0 0.00 0.03 0.03 94 1016.3
20260906132500 17 354 0.0 0.0 0.00 0.03 0.03 94 1016.6
20260906131955 17 352 0.0 0.0 0.00 0.03 0.03 93 1016.6
20260906131451 17 339 0.0 0.0 0.00 0.03 0.03 93 1016.6
20260906130946 17 343 0.0 0.0 0.00 0.03 0.03 93 1016.6
20260906130445 18 342 0.0 0.0 0.00 0.03 0.03 92 1016.3
20260906125940 18 358 0.0 0.0 0.00 0.03 0.03 92 1016.3
20260906125437 19 339 0.0 0.0 0.00 0.03 0.03 92 1016.0
20260906124932 19 343 0.0 0.0 0.18 0.03 0.03 92 1016.3
20260906124428 18 333 0.0 0.0 0.18 0.03 0.03 90 1016.6
20260906123927 20 328 0.0 0.0 0.00 0.00 0.00 90 1016.6
20260906123427 20 323 0.0 0.0 0.00 0.00 0.00 89 1017.0
20260906122921 21 325 0.0 0.0 0.00 0.00 0.00 88 1016.3
20260906122416 21 327 0.0 0.0 0.00 0.00 0.00 86 1016.0
20260906121913 21 326 0.0 0.0 0.00 0.00 0.00 84 1015.3
20260906121409 21 327 0.0 0.0 0.00 0.00 0.00 82 1015.3
20260906120905 22 319 0.0 0.0 0.00 0.00 0.00 79 1015.3
20260906120400 22 307 0.0 0.0 0.00 0.00 0.00 76 1015.3
20260906115856 22 323 0.0 0.0 0.00 0.00 0.00 72 1015.3
20260906115352 21 326 0.0 0.0 0.00 0.00 0.00 73 1014.6
20260906114851 21 327 0.0 0.0 0.00 0.00 0.00 74 1014.6
20260906114346 21 328 0.0 0.0 0.00 0.00 0.00 76 1014.6
20260906113841 21 327 0.0 0.0 0.00 0.00 0.00 77 1014.9
20260906113340 21 328 0.0 0.0 0.00 0.00 0.00 78 1014.6
20260906112835 21 327 0.0 0.0 0.00 0.00 0.00 79 1014.6
20260906112332 21 328 0.0 0.0 0.00 0.00 0.00 79 1014.9
20260906111826 21 330 0.0 0.0 0.00 0.00 0.00 80 1014.9
20260906111326 21 327 0.0 0.0 0.00 0.00 0.00 80 1014.9
20260906110821 21 328 0.0 0.0 0.00 0.00 0.00 80 1014.6
20260906110317 21 327 0.0 0.0 0.00 0.00 0.00 80 1014.9
20260906105815 21 327 0.0 0.0 0.00 0.00 0.00 79 1014.6
20260906105311 21 328 0.0 0.0 0.00 0.00 0.00 79 1014.6
20260906104807 21 327 0.0 0.0 0.00 0.00 0.00 78 1014.9
20260906104306 21 330 0.0 0.0 0.00 0.00 0.00 78 1014.9
20260906103804 22 328 0.0 0.0 0.00 0.00 0.00 77 1014.6
20260906103303 22 329 0.0 0.0 0.00 0.00 0.00 77 1014.6
20260906102759 22 327 0.0 0.0 0.00 0.00 0.00 77 1014.9
20260906102258 22 327 0.0 0.0 0.00 0.00 0.00 76 1014.6
20260906101754 22 327 0.0 0.0 0.00 0.00 0.00 76 1014.6
20260906101248 22 325 0.0 0.0 0.00 0.00 0.00 76 1014.9
20260906100744 22 326 0.0 0.0 0.00 0.00 0.00 75 1014.6
20260906100243 22 326 0.0 0.0 0.00 0.00 0.00 75 1014.9
20260906095738 22 327 0.0 0.0 0.00 0.00 0.00 74 1014.6
20260906095233 22 327 0.0 0.0 0.00 0.00 0.00 75 1014.9
20260906094733 21 328 0.0 0.0 0.00 0.00 0.00 74 1014.9
20260906094228 21 325 0.0 0.0 0.00 0.00 0.00 74 1014.9
20260906093725 21 326 0.0 0.0 0.00 0.00 0.00 76 1014.9
20260906093220 21 326 0.0 0.0 0.00 0.00 0.00 77 1014.9
20260906092715 21 327 0.0 0.0 0.00 0.00 0.00 79 1014.9
20260906092214 21 326 0.0 0.0 0.00 0.00 0.00 80 1014.6
20260906091711 21 326 0.0 0.0 0.00 0.00 0.00 81 1014.9
20260906091207 21 328 0.0 0.0 0.00 0.00 0.00 83 1014.9
20260906090703 21 329 0.0 0.0 0.00 0.00 0.00 83 1014.6
20260906090202 21 329 0.0 0.0 0.00 0.00 0.00 83 1014.9
20260906085701 21 327 0.0 0.0 0.00 0.00 0.00 84 1014.6
20260906085200 21 330 0.0 0.0 0.00 0.00 0.00 84 1014.9
20260906084655 21 331 0.0 0.0 0.00 0.00 0.00 84 1014.9
20260906084155 21 327 0.0 0.0 0.00 0.00 0.00 85 1014.9
20260906083649 21 330 0.0 0.0 0.00 0.00 0.00 85 1014.9
20260906083145 21 328 0.0 0.0 0.00 0.00 0.00 86 1014.9
20260906082640 21 330 0.0 0.0 0.00 0.00 0.00 86 1014.9
20260906082136 21 329 0.0 0.0 0.00 0.00 0.00 86 1014.9
20260906081632 21 331 0.0 0.0 0.00 0.00 0.00 87 1014.9
20260906081126 21 328 0.0 0.0 0.00 0.00 0.00 87 1014.9
20260906080623 21 330 0.0 0.0 0.00 0.00 0.00 87 1014.9
20260906080119 21 331 0.0 0.0 0.00 0.00 0.00 88 1014.9
20260906075618 21 331 0.0 0.0 0.00 0.00 0.00 88 1014.9
20260906075113 21 331 0.0 0.0 0.00 0.00 0.00 88 1015.3
20260906074609 21 329 0.0 0.0 0.00 0.00 0.00 88 1015.3
20260906074108 21 329 0.0 0.0 0.00 0.00 0.00 88 1015.3
20260906073608 21 330 0.0 0.0 0.00 0.00 0.00 88 1014.9
20260906073104 21 328 0.0 0.0 0.00 0.00 0.00 88 1015.3
20260906072558 21 329 0.0 0.0 0.00 0.00 0.00 88 1015.3
20260906072054 21 328 0.0 0.0 0.00 0.00 0.00 88 1014.9
20260906071550 21 328 0.0 0.0 0.00 0.00 0.00 88 1014.9
20260906071039 21 327 0.0 0.0 0.00 0.00 0.00 88 1014.9
20260906070536 21 328 0.0 0.0 0.00 0.00 0.00 88 1014.9
20260906070032 21 328 0.0 0.0 0.00 0.00 0.00 88 1015.3
20260906065531 21 327 0.0 0.0 0.00 0.00 0.00 88 1014.9
20260906065027 21 327 0.0 0.0 0.00 0.00 0.00 88 1014.9
20260906064522 21 330 0.0 0.0 0.00 0.00 0.00 88 1014.9
20260906064017 21 330 0.0 0.0 0.00 0.00 0.00 87 1014.9
20260906063512 21 328 0.0 0.0 0.00 0.00 0.00 87 1014.9
20260906063008 21 327 0.0 0.0 0.00 0.00 0.00 87 1014.9
20260906062503 21 327 0.0 0.0 0.00 0.00 0.00 87 1014.9
20260906061957 21 327 0.0 0.0 0.00 0.00 0.00 87 1015.3
20260906061453 21 327 0.0 0.0 0.00 0.00 0.00 87 1015.3
20260906060947 21 326 0.0 0.0 0.00 0.00 0.00 86 1015.3
20260906060444 21 326 0.0 0.0 0.00 0.00 0.00 86 1014.9
20260906055941 21 326 0.0 0.0 0.00 0.00 0.00 86 1014.9
20260906055436 21 326 0.0 0.0 0.00 0.00 0.00 86 1015.3
20260906054932 21 327 0.0 0.0 0.00 0.00 0.00 86 1015.3
20260906054426 21 326 0.0 0.0 0.00 0.00 0.00 86 1015.3
20260906053922 22 322 0.0 0.0 0.00 0.00 0.00 86 1015.3
20260906053418 22 317 0.0 0.0 0.00 0.00 0.00 85 1015.3
20260906052914 22 284 0.0 0.0 0.00 0.00 0.00 85 1015.3
20260906052410 22 319 0.0 0.0 0.00 0.00 0.00 85 1015.3
20260906051907 22 319 0.0 0.0 0.00 0.00 0.00 84 1015.6
20260906051406 22 321 0.0 0.0 0.00 0.00 0.00 84 1015.6
20260906050902 22 318 0.0 0.0 0.00 0.00 0.00 83 1015.3
20260906050357 22 311 0.0 0.0 0.00 0.00 0.00 83 1015.3
20260906045855 22 317 0.0 0.0 0.00 0.00 0.00 82 1015.3
20260906045349 22 314 0.0 0.0 0.00 0.00 0.00 81 1015.3
20260906044846 22 318 0.0 0.0 0.00 0.00 0.00 81 1015.3
20260906044346 22 319 0.0 0.0 0.00 0.00 0.00 81 1015.3
20260906043842 22 319 0.0 0.0 0.00 0.00 0.00 80 1015.3
20260906043338 22 317 0.0 0.0 0.00 0.00 0.00 80 1015.3
20260906042833 22 320 0.0 0.0 0.00 0.00 0.00 80 1015.6
20260906042331 22 322 0.0 0.0 0.00 0.00 0.00 80 1015.6
20260906041827 22 322 0.0 0.0 0.00 0.00 0.00 79 1015.6
20260906041323 22 321 0.0 0.0 0.00 0.00 0.00 79 1015.3
20260906040823 22 319 0.0 0.0 0.00 0.00 0.00 79 1015.6
20260906040318 22 321 0.0 0.0 0.00 0.00 0.00 79 1015.3
20260906035813 22 320 0.0 0.0 0.00 0.00 0.00 78 1015.3
20260906035308 22 322 0.0 0.0 0.00 0.00 0.00 77 1015.3
20260906034803 22 323 0.0 0.0 0.00 0.00 0.00 76 1014.9
20260906034258 22 322 0.0 0.0 0.00 0.00 0.00 76 1014.9
20260906033754 22 320 0.0 0.0 0.00 0.00 0.00 75 1014.9
20260906033253 22 310 0.0 0.0 0.00 0.00 0.00 75 1014.9
20260906032750 22 317 0.0 0.0 0.00 0.00 0.00 74 1014.9
20260906032250 22 324 0.0 0.0 0.00 0.00 0.00 74 1014.9
20260906031745 23 292 0.0 1.6 0.00 0.00 0.00 73 1014.9
20260906031241 23 321 0.0 0.0 0.00 0.00 0.00 74 1014.6
20260906030740 23 319 0.0 0.0 0.00 0.00 0.00 74 1014.9
20260906030236 23 299 1.6 4.8 0.00 0.00 0.00 73 1014.6
20260906025735 23 289 1.6 1.6 0.00 0.00 0.00 72 1014.9
20260906025229 23 336 0.0 0.0 0.00 0.00 0.00 72 1014.6
20260906024728 23 349 0.0 1.6 0.00 0.00 0.00 72 1014.6
20260906024228 23 324 1.6 3.2 0.00 0.00 0.00 72 1014.6
20260906023724 23 269 3.2 3.2 0.00 0.00 0.00 71 1014.9
20260906023219 23 296 1.6 1.6 0.00 0.00 0.00 69 1014.9
20260906022714 23 333 1.6 3.2 0.00 0.00 0.00 68 1014.9
20260906022209 23 334 1.6 3.2 0.00 0.00 0.00 66 1014.9
20260906021706 23 328 0.0 3.2 0.00 0.00 0.00 64 1014.9
20260906021204 23 281 3.2 4.8 0.00 0.00 0.00 63 1014.9
20260906020659 24 325 1.6 3.2 0.00 0.00 0.00 63 1014.9
20260906020154 24 308 3.2 4.8 0.00 0.00 0.00 61 1014.9
20260906015648 24 319 1.6 4.8 0.00 0.00 0.00 61 1014.6
20260906015147 25 301 1.6 6.4 0.00 0.00 0.00 61 1014.6
20260906014647 25 338 0.0 1.6 0.00 0.00 0.00 64 1014.6
20260906014143 25 324 0.0 4.8 0.00 0.00 0.00 62 1014.6
20260906013638 25 256 4.8 6.4 0.00 0.00 0.00 64 1014.9
20260906013134 25 307 4.8 11.3 0.00 0.00 0.00 61 1014.9
20260906012633 25 236 4.8 6.4 0.00 0.00 0.00 62 1014.9
20260906012128 25 344 3.2 9.7 0.00 0.00 0.00 63 1014.9
20260906011624 25 332 1.6 3.2 0.00 0.00 0.00 62 1014.9
20260906011119 26 340 1.6 6.4 0.00 0.00 0.00 60 1014.9
20260906010614 25 261 3.2 6.4 0.00 0.00 0.00 56 1014.6
20260906010110 26 178 6.4 9.7 0.00 0.00 0.00 52 1014.6
20260906005610 26 311 3.2 3.2 0.00 0.00 0.00 52 1014.6
20260906005109 26 278 3.2 4.8 0.00 0.00 0.00 54 1014.6
20260906004608 26 300 3.2 6.4 0.00 0.00 0.00 54 1014.6
20260906004103 26 212 3.2 6.4 0.00 0.00 0.00 52 1014.6
20260906003558 26 183 3.2 6.4 0.00 0.00 0.00 53 1014.6
20260906003054 26 16 3.2 4.8 0.00 0.00 0.00 52 1014.6
20260906002549 25 295 1.6 4.8 0.00 0.00 0.00 58 1014.6
20260906002044 26 263 4.8 4.8 0.00 0.00 0.00 63 1014.6
20260906001539 27 271 3.2 6.4 0.00 0.00 0.00 60 1014.6
20260906001033 26 235 6.4 9.7 0.00 0.00 0.00 63 1014.9
20260906000529 26 263 4.8 9.7 0.00 0.00 0.00 63 1014.9
20260906000024 26 261 3.2 11.3 0.00 0.00 0.00 62 1014.6
20260905235518 27 278 6.4 9.7 0.00 0.00 0.00 60 1014.6
20260905235013 26 218 3.2 6.4 0.00 0.00 0.00 61 1014.6
20260905234508 26 240 4.8 11.3 0.00 0.00 0.00 63 1014.6
20260905234002 26 309 6.4 9.7 0.00 0.00 0.00 64 1014.6
20260905233458 26 298 6.4 9.7 0.00 0.00 0.00 65 1014.6
20260905232956 26 1 3.2 6.4 0.00 0.00 0.00 64 1014.6
20260905232453 26 248 3.2 11.3 0.00 0.00 0.00 63 1014.6
20260905231948 27 255 6.4 9.7 0.00 0.00 0.00 63 1014.9
20260905231444 26 293 3.2 6.4 0.00 0.00 0.00 64 1014.9
20260905230940 26 278 4.8 9.7 0.00 0.00 0.00 63 1014.9
20260905230438 27 253 3.2 9.7 0.00 0.00 0.00 62 1014.6
20260905225937 27 307 3.2 9.7 0.00 0.00 0.00 63 1014.9
20260905225432 27 348 3.2 11.3 0.00 0.00 0.00 61 1014.6
20260905224927 27 284 6.4 11.3 0.00 0.00 0.00 62 1014.9
20260905224423 27 210 6.4 6.4 0.00 0.00 0.00 61 1014.9
20260905223922 27 248 8.0 9.7 0.00 0.00 0.00 63 1014.9
20260905223421 27 246 6.4 11.3 0.00 0.00 0.00 62 1014.9
20260905222920 27 248 6.4 9.7 0.00 0.00 0.00 62 1014.9
20260905222420 27 262 4.8 6.4 0.00 0.00 0.00 62 1014.9
20260905221916 28 218 3.2 9.7 0.00 0.00 0.00 60 1014.9
20260905221413 27 301 1.6 9.7 0.00 0.00 0.00 62 1015.3
20260905220909 27 225 6.4 9.7 0.00 0.00 0.00 63 1014.9
20260905220404 27 264 3.2 9.7 0.00 0.00 0.00 62 1014.9
20260905215903 27 269 4.8 6.4 0.00 0.00 0.00 61 1015.6
20260905215359 27 224 6.4 6.4 0.00 0.00 0.00 61 1015.3
20260905214855 28 271 4.8 11.3 0.00 0.00 0.00 60 1015.3
20260905214350 27 207 6.4 9.7 0.00 0.00 0.00 60 1015.3
20260905213845 27 226 6.4 6.4 0.00 0.00 0.00 60 1015.3
20260905213341 28 255 6.4 6.4 0.00 0.00 0.00 57 1015.6
20260905212836 27 310 3.2 4.8 0.00 0.00 0.00 60 1015.6
20260905212336 28 251 8.0 11.3 0.00 0.00 0.00 59 1015.6
20260905211830 28 276 6.4 9.7 0.00 0.00 0.00 58 1015.6
20260905211326 27 258 4.8 9.7 0.00 0.00 0.00 61 1015.6
20260905210822 28 299 6.4 9.7 0.00 0.00 0.00 59 1016.0
20260905210322 27 238 3.2 9.7 0.00 0.00 0.00 61 1016.0
20260905205821 27 211 4.8 9.7 0.00 0.00 0.00 62 1015.6
20260905205316 27 268 6.4 9.7 0.00 0.00 0.00 60 1016.0
20260905204815 27 248 6.4 9.7 0.00 0.00 0.00 62 1016.0
20260905204311 27 339 1.6 6.4 0.00 0.00 0.00 62 1016.0
20260905203810 27 155 1.6 9.7 0.00 0.00 0.00 62 1016.3
20260905203306 27 334 1.6 4.8 0.00 0.00 0.00 62 1016.0
20260905202801 27 263 4.8 9.7 0.00 0.00 0.00 63 1016.3
20260905202256 27 239 4.8 9.7 0.00 0.00 0.00 64 1016.0
20260905201752 27 278 8.0 9.7 0.00 0.00 0.00 61 1016.0
20260905201247 27 318 3.2 4.8 0.00 0.00 0.00 63 1016.3
20260905200742 27 337 3.2 4.8 0.00 0.00 0.00 62 1016.3
20260905200237 27 232 9.7 11.3 0.00 0.00 0.00 62 1016.3
20260905195735 27 203 6.4 9.7 0.00 0.00 0.00 61 1016.3
20260905195230 27 307 1.6 11.3 0.00 0.00 0.00 63 1016.6
20260905194726 27 292 3.2 6.4 0.00 0.00 0.00 62 1016.6
20260905194225 27 215 6.4 6.4 0.00 0.00 0.00 62 1016.6
20260905193719 27 300 6.4 6.4 0.00 0.00 0.00 62 1016.6
20260905193214 27 250 6.4 9.7 0.00 0.00 0.00 62 1016.6
20260905192710 27 264 3.2 6.4 0.00 0.00 0.00 62 1016.3
20260905192206 27 223 3.2 9.7 0.00 0.00 0.00 62 1017.0
20260905191706 27 264 3.2 9.7 0.00 0.00 0.00 62 1016.6
20260905191204 27 245 1.6 4.8 0.00 0.00 0.00 62 1016.6
20260905190703 27 299 3.2 6.4 0.00 0.00 0.00 62 1016.6
20260905190202 27 144 3.2 6.4 0.00 0.00 0.00 63 1017.0
20260905185701 27 2 3.2 4.8 0.00 0.00 0.00 62 1017.0
20260905185155 27 212 4.8 4.8 0.00 0.00 0.00 62 1017.0
20260905184655 28 318 1.6 4.8 0.00 0.00 0.00 60 1017.3
20260905184154 27 260 3.2 6.4 0.00 0.00 0.00 60 1017.3
20260905183648 26 222 4.8 4.8 0.00 0.00 0.00 63 1017.3
20260905183143 26 181 3.2 6.4 0.00 0.00 0.00 64 1017.3
20260905182643 27 273 3.2 4.8 0.00 0.00 0.00 63 1017.0
20260905182143 27 130 3.2 4.8 0.00 0.00 0.00 63 1017.6
20260905181638 27 186 3.2 6.4 0.00 0.00 0.00 64 1017.3
20260905181137 26 306 3.2 4.8 0.00 0.00 0.00 64 1017.3
20260905180632 26 101 1.6 6.4 0.00 0.00 0.00 65 1017.6
20260905180127 26 236 3.2 9.7 0.00 0.00 0.00 64 1017.6
20260905175626 26 154 3.2 4.8 0.00 0.00 0.00 64 1017.3
20260905175122 27 224 6.4 9.7 0.00 0.00 0.00 64 1017.3
20260905174617 27 252 1.6 4.8 0.00 0.00 0.00 63 1017.3
20260905174113 27 314 3.2 4.8 0.00 0.00 0.00 57 1017.3
20260905173609 27 64 0.0 1.6 0.00 0.00 0.00 56 1017.3
20260905173104 27 347 0.0 1.6 0.00 0.00 0.00 58 1017.0
20260905172603 26 182 1.6 3.2 0.00 0.00 0.00 59 1017.3
20260905172058 26 20 1.6 1.6 0.00 0.00 0.00 60 1017.3
20260905171554 26 76 4.8 6.4 0.00 0.00 0.00 61 1017.0
20260905171050 26 303 0.0 6.4 0.00 0.00 0.00 62 1017.3
20260905170547 26 261 3.2 3.2 0.00 0.00 0.00 62 1017.3
20260905170042 26 49 0.0 1.6 0.00 0.00 0.00 61 1017.0
20260905165537 25 352 0.0 1.6 0.00 0.00 0.00 64 1017.3
20260905165032 25 317 1.6 4.8 0.00 0.00 0.00 65 1017.0
20260905164526 25 342 1.6 3.2 0.00 0.00 0.00 65 1017.0
20260905164021 25 95 3.2 3.2 0.00 0.00 0.00 63 1017.0
20260905163517 25 12 1.6 4.8 0.00 0.00 0.00 64 1017.0
20260905163013 25 34 0.0 3.2 0.00 0.00 0.00 65 1017.0
20260905162508 25 31 1.6 3.2 0.00 0.00 0.00 66 1017.0
20260905162003 24 48 3.2 3.2 0.00 0.00 0.00 68 1017.0
20260905161503 24 62 3.2 4.8 0.00 0.00 0.00 68 1017.0
20260905161000 25 176 1.6 4.8 0.00 0.00 0.00 66 1017.0
20260905160454 24 7 0.0 1.6 0.00 0.00 0.00 69 1017.0
20260905155954 25 59 0.0 1.6 0.00 0.00 0.00 69 1017.0
20260905155449 25 27 1.6 1.6 0.00 0.00 0.00 70 1017.0
20260905154947 23 349 0.0 1.6 0.00 0.00 0.00 73 1017.0
20260905154442 24 357 0.0 3.2 0.00 0.00 0.00 72 1017.0
20260905153938 25 28 0.0 3.2 0.00 0.00 0.00 70 1017.0
20260905153434 25 348 0.0 0.0 0.00 0.00 0.00 72 1017.0
20260905152934 24 347 0.0 0.0 0.00 0.00 0.00 73 1017.0
20260905152434 23 345 0.0 3.2 0.00 0.00 0.00 74 1017.0
20260905151928 23 14 1.6 3.2 0.00 0.00 0.00 75 1017.0
20260905151425 23 7 0.0 1.6 0.00 0.00 0.00 76 1017.0
20260905150924 23 347 0.0 0.0 0.00 0.00 0.00 75 1017.0
20260905150419 23 4 0.0 0.0 0.00 0.00 0.00 74 1017.0
20260905145915 23 26 0.0 0.0 0.00 0.00 0.00 76 1017.0
20260905145410 23 347 0.0 0.0 0.00 0.00 0.00 77 1016.6
20260905144909 21 17 0.0 0.0 0.00 0.00 0.00 82 1016.6
20260905144405 21 348 0.0 0.0 0.00 0.00 0.00 86 1016.6
20260905143904 20 354 0.0 0.0 0.00 0.00 0.00 90 1016.6
20260905143358 20 354 0.0 0.0 0.00 0.00 0.00 92 1016.3
20260905142857 19 347 0.0 0.0 0.00 0.00 0.00 94 1016.0
20260905142356 18 11 0.0 0.0 0.00 0.00 0.00 94 1016.3
20260905141852 18 343 0.0 0.0 0.00 0.00 0.00 95 1016.3
20260905141347 18 352 0.0 0.0 0.00 0.00 0.00 95 1016.6
20260905140844 18 348 0.0 0.0 0.00 0.00 0.00 95 1016.3
20260905140343 18 336 0.0 0.0 0.00 0.00 0.00 95 1016.3
20260905135842 17 345 0.0 0.0 0.00 0.00 0.00 95 1016.3
20260905135338 17 345 0.0 0.0 0.00 0.00 0.00 95 1016.3
20260905134833 17 334 0.0 0.0 0.00 0.00 0.00 95 1016.0
20260905134326 17 345 0.0 0.0 0.00 0.00 0.00 95 1016.3
20260905133821 17 341 0.0 0.0 0.00 0.00 0.00 95 1016.0